Regional Weather Roundup
Issued by NWS

Home | Current Version | Previous Version | Graphics & Text | Print | Product List | Glossary On
Versions: 1 2 3 4 5 6 7 8 9 10 11 12 13 14 15 16 17 18 19 20 21 22 23 24 25 26 27 28 29 30 31 32 33 34 35 36 37 38 39 40 41 42 43 44 45 46 47 48 49 50
000
ASUS43 KLSX 271107
RWRMO

WEATHER SUMMARY FOR MISSOURI
NATIONAL WEATHER SERVICE SPRINGFIELD MO
600 AM CDT TUE JUN 27 2017

NOTE: "FAIR" INDICATES FEW OR NO CLOUDS BELOW 12,000 FEET WITH NO
       SIGNIFICANT WEATHER AND/OR OBSTRUCTIONS TO VISIBILITY.
       CURRENT SKY AND/OR WEATHER CONDITIONS ARE NOT AVAILABLE FOR
       CHILLICOTHE AND FARMINGTON.

MOZ001>031-035>038-043-044-053-054-271200-
...NORTHERN AND WESTERN MISSOURI...

CITY           SKY/WX    TMP DP  RH WIND       PRES   REMARKS
KANSAS CTY INT CLEAR     57  55  93 E6        30.12S
KANSAS C DTWN  CLEAR     57  56  96 NE5       30.12S
LEE`S SUMMIT   CLEAR     56  56 100 E6        30.13S
ST JOSEPH      FOG       53  53 100 CALM      30.13R VSB<1/4
CHILLICOTHE      N/A     54  53  97 CALM      30.15S
KIRKSVILLE     CLEAR     50  47  89 CALM      30.16R

$$
MOZ066>068-077>081-088>096-101>105-271200-
...SOUTHWEST MISSOURI...

CITY           SKY/WX    TMP DP  RH WIND       PRES   REMARKS
SPRINGFIELD    PTCLDY    59  58  96 SE6       30.12S
JOPLIN         PTCLDY    62  62 100 SE6       30.10S
BRANSON        CLOUDY    59  59 100 CALM      30.14S

$$
MOZ032>034-039>042-045>050-055>058-069>072-271200-
...CENTRAL MISSOURI...

CITY           SKY/WX    TMP DP  RH WIND       PRES   REMARKS
COLUMBIA       FOG       53  53 100 CALM      30.15S VSB 1/4
JEFFERSON CITY FOG       57  56  96 E3        30.15S VSB 1/4
ROLLA          CLEAR     53  53 100 E5        30.15R
SEDALIA        CLEAR     55  55 100 E3        30.14S
WARRENSBURG    FOG       52  50  93 CALM      30.13S VSB 1/4
OSAGE BEACH    CLEAR     54  54 100 SE3       30.16R

$$
MOZ051-052-059>065-271200-
...EAST CENTRAL MISSOURI...

CITY           SKY/WX    TMP DP  RH WIND       PRES   REMARKS
ST LOUIS INTL  PTCLDY    59  55  87 W3        30.16R
SPIRIT OF STL  CLEAR     53  53 100 CALM      30.15R FOG
ST CHARLES     PTCLDY    54  53  97 SW6       30.14R FOG

$$
MOZ072>076-082>087-097>100-106>115-271200-
...SOUTH CENTRAL AND SOUTHEAST MISSOURI...

CITY           SKY/WX    TMP DP  RH WIND       PRES   REMARKS
CAPE GIRARDEAU CLEAR     57  54  89 W5        30.15R
FARMINGTON     CLEAR     56  54  93 N5        30.17R
POPLAR BLUFF   LGT RAIN  63  62  97 CALM      30.15S
WEST PLAINS    CLOUDY    60  58  92 VRB3      30.16S

$$




USA.gov is the U.S. government's official web portal to all federal, state and local government web resources and services.